STARLINK-34578, 64856

Orbit data source: Space-Track

STARLINK-34578, 64856 is a payload satellite owned by SpaceX/Seattle (US) in SSO that was launched on Sat, 19 Jul 2025 UTC via an FALCON 9 launch vehicle from the Air Force Western Test Range (AFWTR). Payload-class satellites include a variety of spacecraft equipped with specific instruments for various scientific and technological missions. These include communications satellites like Starlink; space stations such as the ISS; scientific satellites like the Hubble; Earth observation satellites from companies like Planet Labs, Umbra, and HawkEye 360; GPS; miniature CubeSats for education and research; and military/defense satellites.

Loading next visibility...
Identifier
64856, 2025-152Q
Orbit
SSO
Country
Flag of USUS
Related business
Manufacturer
SpaceX/Seattle
Mission
Operational Commercial Communications
Bus & Motor
STARLINK V2MO, Unknown motor
Mass
575 kg wet, ~530 kg dry
Launch date (UTC)
2025-07-19 (11 months ago)
Launch vehicle
FALCON 9
Launch site
Air Force Western Test Range (AFWTR)
Object type
Payload
Rocket body
Debris
Shape & HBR
Box + 2 Pan, 17.7 m
Radar Cross Section
36.964 m², Large (>1 m²)

Expand to show TLE details & history
Last TLE update: 13 hours ago

TLE from 13 hours ago
0 STARLINK-34578
1 64856U 25152Q   26171.30983252  .00007438  00000-0  51869-3 0  9997
2 64856  97.3408  25.6425 0001974 100.0678 260.0772 15.05665966 50861
Epoch: 2026-06-20T07:26Z
TLE epoch observation values (Epoch: 2026-06-20T07:26:09.529Z)
Latitude
-0.00007°
Longitude
5.57651°
Altitude
552.771 km
Speed
7.585 km/s
True Right ascension
01h 42m 34s
True Declination
0° 00' 00"
Sunlit
Object was in daylight at epoch
Visualization orbit readout
Latitude
Unknown
Longitude
Unknown
Altitude
Unknown
Speed
Unknown
Apparent Right ascension
Unknown
Apparent Declination
Unknown
Sunlit
N/A
Visualization observer readout
Local Sidereal Time
07:21:38
Azimuth
Unknown
Elevation
Unknown
Doppler factor
Unknown
Orbital elements
Apogee altitude
547.811 km
Perigee altitude
545.077 km
Semi-major axis
6,924.581 km
Eccentricity
0.0002
Inclination
97.3408°
RAAN
25.6425°
Arg. of periapsis
100.0678°
True anomaly
260.05492°
Mean anomaly
260.0772°
Eccentric anomaly
260.06606°
Mean motion
3.76663 °/min
Orbital period
95.58 mins
BSTAR
0.00051869
Loading maneuver chart data...
Computing Atmospheric mass density...
Loading historical data...
Loading historical data...
Loading historical data...
Loading historical data...
Loading historical data...
Loading historical data...
Loading historical data...

Documentation

Showing up to 5 results
|